Hourly Data Report for April 01, 2019

CLYDE RIVER A
NUNAVUT
Current Station Operator: NAVCAN

70°29'09.000" N
68°31'01.000" W
26.50 m
2400804
71090
YCY

Download Data

Hourly Data (April 2019)
Hourly Data Report for April 1, 2019
TIME
LST
Temp Definition
°C
Dew Point Definition
°C
Rel Hum Definition
%
Precip. Amount Definition
mm

Wind Dir Definition
10's deg

Wind Spd Definition
km/h
Visibility Definition
km
Stn Press Definition
kPa
Hmdx Definition


Wind Chill Definition


Weather Definition


00:00 -18.4 -19.8 89 0.0 12 21 16.1 100.86   -29 Snow
01:00 -18.6 -20.1 88 0.0 11 21 16.1 100.88   -29 Snow
02:00 -18.5 -20.0 88 0.0 13 18 16.1 100.93   -28 Snow
03:00 -18.5 -20.0 88 0.0 13 18 16.1 100.96   -28 Snow
04:00 -18.5 -20.0 88 0.0 13 24 16.1 101.01   -29 Snow
05:00 -19.0 -20.5 88 0.0 12 18 16.1 101.04   -29 Snow
06:00 -19.0 -20.5 88 0.0 12 15 16.1 101.09   -28 Snow
07:00 -18.9 -20.4 88 0.0 10 15 16.1 101.10   -28 Snow
08:00 -18.5 -20.2 87 0.0 12 9 16.1 101.12   -25 LegendNANA
09:00 -17.1 -19.9 79 0.0 28 8 16.1 101.11   -23 LegendNANA
10:00 -18.6 -20.5 85 0.0 5 5 11.3 101.09   -23 LegendNANA
11:00 -18.1 -20.0 85 0.0 5 5 16.1 101.08   -22 LegendNANA
12:00 -18.0 -19.9 85 0.0 2 5 14.5 101.06   -22 LegendNANA
13:00 -18.2 -20.1 85 0.0 34 9 16.1 101.04   -25 LegendNANA
14:00 -17.7 -20.1 82 0.0 29 9 16.1 101.04   -24 LegendNANA
15:00 -17.6 -20.1 81 0.0 29 15 16.1 101.03   -26 Snow
16:00 -17.8 -20.4 80 0.0 26 9 16.1 101.05   -24 LegendNANA
17:00 -18.0 -20.4 82 0.0 30 13 9.7 101.02   -26 Snow
18:00 -19.3 -21.4 84 0.0 30 11 12.9 100.99   -27 Snow
19:00 -19.1 -21.5 82 0.0 29 22 16.1 100.98   -30 Snow
20:00 -18.5 -20.7 83 0.0 28 13 14.5 100.96   -27 Snow
21:00 -17.8 -20.0 83 0.0 29 18 12.9 100.90   -27 Snow
22:00 -17.6 -19.8 83 0.0 26 15 16.1 100.85   -26 Snow
23:00 -17.4 -19.1 87 0.0 30 34 2.0 100.72   -30 Snow

Notes on Data Quality.

Legend

  • E = Estimated
  • M = Missing
  • NA = Not Available*
  • [empty] = Indicates an unobserved value
Date modified: